STARLINK-32746, 62745

Orbit data source: Space-Track

STARLINK-32746, 62745 is a payload satellite owned by SpaceX/Seattle (US) in LEO that was launched on Tue, 21 Jan 2025 UTC via an FALCON 9 launch vehicle from the Air Force Eastern Test Range (AFETR). Payload-class satellites include a variety of spacecraft equipped with specific instruments for various scientific and technological missions. These include communications satellites like Starlink; space stations such as the ISS; scientific satellites like the Hubble; Earth observation satellites from companies like Planet Labs, Umbra, and HawkEye 360; GPS; miniature CubeSats for education and research; and military/defense satellites.

Loading next visibility...
Identifier
62745, 2025-014L
Orbit
LEO
Country
Flag of USUS
Related business
Manufacturer
SpaceX/Seattle
Mission
Operational Commercial Communications
Bus & Motor
STARLINK V2M, Unknown motor
Mass
730 kg wet, ~700 kg dry
Launch date (UTC)
2025-01-21 (11 months ago)
Launch vehicle
FALCON 9
Launch site
Air Force Eastern Test Range (AFETR)
Object type
Payload
Rocket body
Debris
Shape & HBR
Box + 2 Pan, 17.7 m
Radar Cross Section
33.884 m², Large (>1 m²)

Expand to show TLE details & history
Last TLE update: 1 day ago

TLE from 1 day ago
0 STARLINK-32746
1 62745U 25014L   25348.17252145  .00022569  00000-0  82757-3 0  9991
2 62745  43.0035 276.9089 0001698 295.0978  64.9698 15.27562951 50185
Epoch: 2025-12-14T04:08Z
TLE epoch observation values (Epoch: 2025-12-14T04:08:25.853Z)
Latitude
0.00003°
Longitude
131.71196°
Altitude
482.383 km
Speed
7.626 km/s
True Right ascension
18h 27m 38s
True Declination
0° 00' 00"
Sunlit
Object was in daylight at epoch
Visualization orbit readout
Latitude
Unknown
Longitude
Unknown
Altitude
Unknown
Speed
Unknown
Apparent Right ascension
Unknown
Apparent Declination
Unknown
Sunlit
N/A
Visualization observer readout
Local Sidereal Time
13:24:44
Azimuth
Unknown
Elevation
Unknown
Doppler factor
Unknown
Orbital elements
Apogee altitude
486.21 km
Perigee altitude
483.879 km
Semi-major axis
6,863.182 km
Eccentricity
0.00017
Inclination
43.0035°
RAAN
276.9089°
Arg. of periapsis
295.0978°
True anomaly
64.98743°
Mean anomaly
64.9698°
Eccentric anomaly
64.97862°
Mean motion
3.81729 °/min
Orbital period
94.31 mins
BSTAR
0.00082757
Loading maneuver chart data...
Computing Atmospheric mass density...
Loading historical data...
Loading historical data...
Loading historical data...
Loading historical data...
Loading historical data...
Loading historical data...
Loading historical data...

Documentation

Showing up to 5 results
|